Location: Feydey
(46.3431°N, 7.0106°E)
Time: 09:12:56
(UTC+00:00)

Cosmos 2173 Rocket - Visible Passes

Search period start: 28 October 2021 00:00
Search period end: 07 November 2021 00:00
Orbit: 945 x 999 km, 83.0° (Epoch: 27 October)

Date Brightness Start Highest point End Pass type
(mag) Time Alt. Az. Time Alt. Az. Time Alt. Az.
28 Oct 5.4 04:53:41 10° N 04:59:43 42° ENE 05:05:41 10° SE visible
28 Oct 3.9 18:25:26 10° S 18:31:38 75° E 18:37:56 10° NNE visible
28 Oct 6.2 20:13:09 10° WSW 20:17:40 20° WNW 20:22:15 10° NNW visible
29 Oct 6.9 03:35:01 10° NNE 03:37:49 13° ENE 03:40:36 10° E visible
29 Oct 4.5 05:18:02 10° N 05:24:25 70° E 05:30:45 10° SSE visible
29 Oct 5.1 17:06:56 10° SE 17:11:28 22° E 17:16:04 10° NE visible
29 Oct 4.3 18:49:58 10° SSW 18:56:09 67° W 19:02:29 10° N visible
29 Oct 6.8 20:40:28 10° W 20:42:51 12° WNW 20:45:13 10° NW visible
30 Oct 6.4 03:58:11 10° NNE 04:02:58 22° ENE 04:07:42 10° ESE visible
30 Oct 4.5 17:30:01 10° SSE 17:35:38 37° E 17:41:20 10° NNE visible
30 Oct 5.2 19:15:04 10° SW 19:20:52 40° WNW 19:26:49 10° N visible
31 Oct 5.7 04:22:07 10° N 04:27:55 35° ENE 04:33:39 10° SE visible
31 Oct 4.0 17:53:49 10° S 17:59:57 62° E 18:06:12 10° NNE visible
31 Oct 6.0 19:40:48 10° WSW 19:45:47 24° WNW 19:50:51 10° NNW visible
01 Nov 7.0 03:04:35 10° NE 03:05:50 11° NE 03:07:06 10° ENE visible
01 Nov 4.7 04:46:22 10° N 04:52:41 58° ENE 04:58:54 10° SSE visible
01 Nov 4.1 18:18:11 10° SSW 18:24:26 80° W 18:30:49 10° N visible
01 Nov 6.6 20:07:29 10° W 20:10:53 15° WNW 20:14:18 10° NNW visible
02 Nov 6.6 03:26:49 10° NNE 03:31:04 18° ENE 03:35:16 10° ESE visible
02 Nov 4.1 05:10:51 10° N 05:17:16 86° W 05:23:36 10° S visible
02 Nov 4.7 16:58:41 10° SE 17:04:02 30° E 17:09:26 10° NNE visible
02 Nov 4.9 18:43:04 10° SSW 18:49:05 48° WNW 18:55:13 10° N visible
03 Nov 5.9 03:50:34 10° N 03:56:05 29° ENE 04:01:32 10° SE visible
03 Nov 4.2 05:35:33 10° NNW 05:41:42 51° W 05:47:46 10° SSW visible
03 Nov 4.1 17:22:16 10° SSE 17:28:17 52° E 17:34:25 10° NNE visible
03 Nov 5.8 19:08:33 10° SW 19:13:55 29° WNW 19:19:21 10° N visible
04 Nov 5.0 04:14:44 10° N 04:20:54 48° ENE 04:27:01 10° SSE visible
04 Nov 4.0 17:46:27 10° S 17:52:43 86° E 17:59:06 10° N visible
04 Nov 6.5 19:34:50 10° WSW 19:38:56 18° WNW 19:43:06 10° NNW visible
05 Nov 6.7 02:55:35 10° NNE 02:59:08 15° ENE 03:02:39 10° E visible
05 Nov 4.1 04:39:09 10° N 04:45:34 81° E 04:51:54 10° S visible
05 Nov 4.6 18:11:09 10° SSW 18:17:18 57° WNW 18:23:35 10° N visible
05 Nov 7.0 20:03:16 10° WNW 20:04:11 10° NW 20:05:05 10° NW visible
06 Nov 6.1 03:19:05 10° NNE 03:24:13 25° ENE 03:29:18 10° ESE visible
06 Nov 4.0 05:03:46 10° NNW 05:10:03 62° W 05:16:15 10° S visible
06 Nov 4.4 16:50:48 10° SSE 16:56:39 43° E 17:02:36 10° NNE visible
06 Nov 5.6 18:36:25 10° SW 18:42:04 34° WNW 18:47:50 10° N visible
